Time,TemperatureF,DewpointF,PressureIn,WindDirection,WindDirectionDegrees,WindSpeedMPH,WindSpeedGustMPH,Humidity,HourlyPrecipIn,Conditions,Clouds,dailyrainin,SoftwareType,DateUTC
2014-02-10 00:02:00,21.0,19.0,0.89,NW,325,0.0,1.0,91,0.00,,,0.01,,2014-02-10 05:02:00,
2014-02-10 00:13:00,21.0,19.0,0.89,NW,325,0.0,1.0,91,0.00,,,0.01,,2014-02-10 05:13:00,
2014-02-10 00:22:00,20.0,18.0,0.89,NNW,329,0.0,1.0,92,0.00,,,0.01,,2014-02-10 05:22:00,
2014-02-10 00:33:00,20.0,18.0,0.89,NNW,329,0.0,1.0,92,0.00,,,0.01,,2014-02-10 05:33:00,
2014-02-10 00:43:00,20.0,18.0,0.89,NNW,329,0.0,1.0,92,0.00,,,0.01,,2014-02-10 05:43:00,
2014-02-10 00:54:00,20.0,18.0,0.89,ENE,78,0.0,1.0,92,0.00,,,0.01,,2014-02-10 05:54:00,
2014-02-10 01:03:00,20.0,18.0,0.89,ENE,78,0.0,1.0,92,0.00,,,0.01,,2014-02-10 06:03:00,
2014-02-10 01:12:00,20.0,18.0,0.89,ENE,78,0.0,1.0,92,0.00,,,0.01,,2014-02-10 06:12:00,
2014-02-10 01:22:00,19.0,17.0,0.89,East,95,0.0,0.0,92,0.00,,,0.01,,2014-02-10 06:22:00,
2014-02-10 01:32:00,19.0,17.0,0.89,East,95,0.0,0.0,92,0.00,,,0.01,,2014-02-10 06:32:00,
2014-02-10 01:42:00,19.0,17.0,0.89,East,95,0.0,0.0,92,0.00,,,0.01,,2014-02-10 06:42:00,
2014-02-10 01:52:00,18.0,16.0,0.89,East,95,0.0,0.0,91,0.00,,,0.01,,2014-02-10 06:52:00,
2014-02-10 02:02:00,18.0,16.0,0.89,East,95,0.0,0.0,91,0.00,,,0.01,,2014-02-10 07:02:00,
2014-02-10 02:12:00,18.0,16.0,0.89,East,95,0.0,0.0,91,0.00,,,0.01,,2014-02-10 07:12:00,
2014-02-10 02:22:00,18.0,16.0,0.89,SSW,194,0.0,1.0,92,0.00,,,0.01,,2014-02-10 07:22:00,
2014-02-10 02:42:00,18.0,16.0,0.89,SSW,194,0.0,1.0,91,0.00,,,0.01,,2014-02-10 07:42:00,
2014-02-10 02:52:00,17.0,15.0,0.89,WSW,239,0.0,0.0,90,0.00,,,0.01,,2014-02-10 07:52:00,
2014-02-10 03:12:00,17.0,15.0,0.89,WSW,239,0.0,0.0,90,0.00,,,0.01,,2014-02-10 08:12:00,
2014-02-10 03:22:00,16.0,14.0,0.89,WSW,239,0.0,0.0,90,0.00,,,0.01,,2014-02-10 08:22:00,
2014-02-10 03:42:00,17.0,15.0,0.89,WSW,239,0.0,0.0,91,0.00,,,0.01,,2014-02-10 08:42:00,
2014-02-10 03:52:00,17.0,15.0,0.89,WSW,239,0.0,0.0,91,0.00,,,0.01,,2014-02-10 08:52:00,
2014-02-10 04:02:00,17.0,15.0,0.89,WSW,239,0.0,0.0,91,0.00,,,0.01,,2014-02-10 09:02:00,
2014-02-10 04:22:00,18.0,15.0,0.89,WSW,242,0.0,1.0,88,0.00,,,0.01,,2014-02-10 09:22:00,
2014-02-10 04:33:00,18.0,15.0,0.89,WSW,242,0.0,1.0,88,0.00,,,0.01,,2014-02-10 09:33:00,
2014-02-10 04:43:00,18.0,15.0,0.89,WSW,242,0.0,1.0,88,0.00,,,0.01,,2014-02-10 09:43:00,
2014-02-10 04:54:00,18.0,15.0,0.89,WNW,294,0.0,0.0,87,0.00,,,0.01,,2014-02-10 09:54:00,
2014-02-10 05:13:00,17.0,14.0,0.89,WNW,294,0.0,0.0,87,0.00,,,0.01,,2014-02-10 10:13:00,
2014-02-10 05:23:00,17.0,14.0,0.89,SW,225,0.0,1.0,86,0.00,,,0.01,,2014-02-10 10:23:00,
2014-02-10 05:43:00,17.0,13.0,0.89,WNW,300,0.0,1.0,85,0.00,,,0.01,,2014-02-10 10:43:00,
2014-02-10 05:53:00,16.0,12.0,0.89,NW,311,0.0,1.0,85,0.00,,,0.01,,2014-02-10 10:53:00,
2014-02-10 06:12:00,16.0,12.0,0.89,NW,311,0.0,1.0,84,0.00,,,0.01,,2014-02-10 11:12:00,
2014-02-10 06:22:00,16.0,12.0,0.89,NW,322,0.0,2.0,85,0.00,,,0.01,,2014-02-10 11:22:00,
2014-02-10 06:42:00,16.0,12.0,0.89,NW,322,0.0,1.0,85,0.00,,,0.01,,2014-02-10 11:42:00,
2014-02-10 06:53:00,16.0,12.0,0.89,NNW,329,0.0,1.0,84,0.00,,,0.01,,2014-02-10 11:53:00,
2014-02-10 07:12:00,15.0,11.0,0.89,NNW,329,0.0,0.0,85,0.00,,,0.01,,2014-02-10 12:12:00,
2014-02-10 07:22:00,14.0,11.0,0.89,NNW,329,0.0,0.0,86,0.00,,,0.01,,2014-02-10 12:22:00,
2014-02-10 07:32:00,14.0,11.0,0.89,NNW,329,0.0,0.0,86,0.00,,,0.01,,2014-02-10 12:32:00,
2014-02-10 07:42:00,14.0,11.0,0.89,NNW,329,0.0,0.0,86,0.00,,,0.01,,2014-02-10 12:42:00,
2014-02-10 07:52:00,14.0,11.0,0.89,NNW,329,0.0,0.0,86,0.00,,,0.01,,2014-02-10 12:52:00,
2014-02-10 08:11:00,15.0,11.0,0.89,NNW,329,0.0,0.0,85,0.00,,,0.01,,2014-02-10 13:11:00,
2014-02-10 08:22:00,15.0,11.0,0.89,NNW,329,0.0,1.0,84,0.00,,,0.01,,2014-02-10 13:22:00,
2014-02-10 08:32:00,15.0,11.0,0.89,NNW,329,0.0,1.0,84,0.00,,,0.01,,2014-02-10 13:32:00,
2014-02-10 08:42:00,15.0,11.0,0.89,NNW,329,0.0,1.0,84,0.00,,,0.01,,2014-02-10 13:42:00,
2014-02-10 08:52:00,18.0,12.0,0.89,NE,43,1.0,2.0,78,0.00,,,0.01,,2014-02-10 13:52:00,
2014-02-10 09:02:00,18.0,12.0,0.89,NE,43,1.0,2.0,78,0.00,,,0.01,,2014-02-10 14:02:00,
2014-02-10 09:12:00,18.0,12.0,0.89,NE,43,1.0,2.0,78,0.00,,,0.01,,2014-02-10 14:12:00,
2014-02-10 09:22:00,18.0,12.0,0.89,NE,43,1.0,2.0,78,0.00,,,0.01,,2014-02-10 14:22:00,
2014-02-10 09:42:00,21.0,13.0,0.89,North,355,1.0,3.0,71,0.00,,,0.01,,2014-02-10 14:42:00,
2014-02-10 09:52:00,22.0,14.0,0.89,North,360,0.0,3.0,71,0.00,,,0.01,,2014-02-10 14:52:00,
2014-02-10 10:02:00,22.0,14.0,0.89,North,360,0.0,3.0,71,0.00,,,0.01,,2014-02-10 15:02:00,
2014-02-10 10:11:00,22.0,14.0,0.89,North,360,0.0,3.0,71,0.00,,,0.01,,2014-02-10 15:11:00,
2014-02-10 10:43:00,24.0,14.0,0.89,North,349,0.0,3.0,65,0.00,,,0.01,,2014-02-10 15:43:00,
2014-02-10 10:53:00,25.0,13.0,0.89,NNW,333,0.0,3.0,61,0.00,,,0.01,,2014-02-10 15:53:00,
2014-02-10 11:04:00,25.0,13.0,0.89,NNW,333,0.0,3.0,61,0.00,,,0.01,,2014-02-10 16:04:00,
2014-02-10 11:13:00,25.0,13.0,0.89,NNW,333,0.0,3.0,61,0.00,,,0.01,,2014-02-10 16:13:00,
2014-02-10 11:24:00,25.0,13.0,0.89,NNW,336,3.0,6.0,59,0.00,,,0.01,,2014-02-10 16:24:00,
2014-02-10 11:43:00,25.0,12.0,0.89,North,350,0.0,5.0,58,0.00,,,0.01,,2014-02-10 16:43:00,
2014-02-10 11:53:00,25.0,13.0,0.89,NNE,15,0.0,5.0,59,0.00,,,0.01,,2014-02-10 16:53:00,
2014-02-10 12:02:00,25.0,13.0,0.89,NNE,15,0.0,5.0,59,0.00,,,0.01,,2014-02-10 17:02:00,
2014-02-10 12:12:00,25.0,13.0,0.89,NNE,15,0.0,5.0,59,0.00,,,0.01,,2014-02-10 17:12:00,
2014-02-10 12:23:00,25.0,12.0,0.89,North,360,0.0,6.0,58,0.00,,,0.01,,2014-02-10 17:23:00,
2014-02-10 12:43:00,25.0,12.0,0.89,NNE,12,1.0,4.0,56,0.00,,,0.01,,2014-02-10 17:43:00,
2014-02-10 12:53:00,25.0,12.0,0.89,North,355,1.0,3.0,56,0.00,,,0.01,,2014-02-10 17:53:00,
2014-02-10 13:12:00,26.0,12.0,0.89,NE,42,3.0,4.0,56,0.00,,,0.01,,2014-02-10 18:12:00,
2014-02-10 13:22:00,25.0,12.0,0.89,NE,45,1.0,4.0,57,0.00,,,0.01,,2014-02-10 18:22:00,
2014-02-10 13:32:00,25.0,12.0,0.89,NE,45,1.0,4.0,57,0.00,,,0.01,,2014-02-10 18:32:00,
2014-02-10 13:43:00,25.0,12.0,0.89,NE,45,1.0,4.0,57,0.00,,,0.01,,2014-02-10 18:43:00,
2014-02-10 13:52:00,26.0,13.0,0.89,SSE,147,3.0,3.0,57,0.00,,,0.01,,2014-02-10 18:52:00,
2014-02-10 14:11:00,26.0,11.0,0.89,NNE,32,1.0,5.0,53,0.00,,,0.00,,2014-02-10 19:11:00,
2014-02-10 14:22:00,27.0,12.0,0.89,North,360,0.0,3.0,53,0.00,,,0.00,,2014-02-10 19:22:00,
2014-02-10 14:32:00,27.0,12.0,0.89,North,360,0.0,3.0,53,0.00,,,0.00,,2014-02-10 19:32:00,
2014-02-10 14:42:00,27.0,12.0,0.89,North,360,0.0,3.0,53,0.00,,,0.00,,2014-02-10 19:42:00,
2014-02-10 14:52:00,26.0,11.0,0.89,WNW,301,0.0,5.0,53,0.00,,,0.00,,2014-02-10 19:52:00,
2014-02-10 15:01:00,26.0,11.0,0.89,WNW,301,0.0,5.0,53,0.00,,,0.00,,2014-02-10 20:01:00,
2014-02-10 15:11:00,26.0,11.0,0.89,WNW,301,0.0,5.0,53,0.00,,,0.00,,2014-02-10 20:11:00,
2014-02-10 15:22:00,26.0,11.0,0.89,NNW,334,1.0,3.0,53,0.00,,,0.00,,2014-02-10 20:22:00,
2014-02-10 15:32:00,26.0,11.0,0.89,NNW,334,1.0,3.0,53,0.00,,,0.00,,2014-02-10 20:32:00,
2014-02-10 15:42:00,26.0,11.0,0.89,NNW,334,1.0,3.0,53,0.00,,,0.00,,2014-02-10 20:42:00,
2014-02-10 15:52:00,26.0,11.0,0.89,ESE,112,0.0,3.0,52,0.00,,,0.00,,2014-02-10 20:52:00,
2014-02-10 16:12:00,25.0,11.0,0.89,North,355,1.0,6.0,54,0.00,,,0.00,,2014-02-10 21:12:00,
2014-02-10 16:22:00,24.0,11.0,0.89,NNW,342,2.0,4.0,56,0.00,,,0.00,,2014-02-10 21:22:00,
2014-02-10 16:43:00,24.0,10.0,0.89,North,360,0.0,3.0,54,0.00,,,0.00,,2014-02-10 21:43:00,
2014-02-10 16:54:00,24.0,10.0,0.89,North,360,0.0,3.0,54,0.00,,,0.00,,2014-02-10 21:54:00,
2014-02-10 17:03:00,24.0,10.0,0.89,North,360,0.0,3.0,54,0.00,,,0.00,,2014-02-10 22:03:00,
2014-02-10 17:24:00,24.0,10.0,0.89,NNW,344,0.0,3.0,54,0.00,,,0.00,,2014-02-10 22:24:00,
2014-02-10 17:33:00,24.0,10.0,0.89,NNW,344,0.0,3.0,54,0.00,,,0.00,,2014-02-10 22:33:00,
2014-02-10 17:43:00,24.0,10.0,0.89,NNW,344,0.0,3.0,54,0.00,,,0.00,,2014-02-10 22:43:00,
2014-02-10 17:53:00,22.0,10.0,0.89,NNW,331,0.0,0.0,60,0.00,,,0.00,,2014-02-10 22:53:00,
2014-02-10 18:12:00,22.0,10.0,0.89,North,355,0.0,2.0,59,0.00,,,0.00,,2014-02-10 23:12:00,
2014-02-10 18:22:00,22.0,10.0,0.89,North,355,0.0,2.0,59,0.00,,,0.00,,2014-02-10 23:22:00,
2014-02-10 18:42:00,20.0,9.0,0.90,North,355,0.0,1.0,62,0.00,,,0.00,,2014-02-10 23:42:00,
2014-02-10 18:53:00,19.0,10.0,0.90,North,355,0.0,0.0,66,0.00,,,0.00,,2014-02-10 23:53:00,
2014-02-10 19:12:00,19.0,9.0,0.90,North,355,0.0,0.0,65,0.00,,,0.00,,2014-02-11 00:12:00,
2014-02-10 19:22:00,19.0,9.0,0.90,North,355,0.0,0.0,63,0.00,,,0.00,,2014-02-11 00:22:00,
2014-02-10 19:32:00,19.0,9.0,0.90,North,355,0.0,0.0,63,0.00,,,0.00,,2014-02-11 00:32:00,
2014-02-10 19:42:00,19.0,9.0,0.90,North,355,0.0,0.0,63,0.00,,,0.00,,2014-02-11 00:42:00,
2014-02-10 19:52:00,18.0,8.0,0.90,North,355,0.0,0.0,64,0.00,,,0.00,,2014-02-11 00:52:00,
2014-02-10 20:12:00,18.0,8.0,0.90,North,355,0.0,0.0,65,0.00,,,0.00,,2014-02-11 01:12:00,
2014-02-10 20:22:00,16.0,8.0,0.90,North,355,0.0,0.0,69,0.00,,,0.00,,2014-02-11 01:22:00,
2014-02-10 20:32:00,16.0,8.0,0.90,North,355,0.0,0.0,69,0.00,,,0.00,,2014-02-11 01:32:00,
2014-02-10 20:42:00,16.0,8.0,0.90,North,355,0.0,0.0,69,0.00,,,0.00,,2014-02-11 01:42:00,
2014-02-10 20:52:00,14.0,7.0,0.90,North,355,0.0,0.0,73,0.00,,,0.00,,2014-02-11 01:52:00,
2014-02-10 21:12:00,14.0,8.0,0.90,North,355,0.0,0.0,75,0.00,,,0.00,,2014-02-11 02:12:00,
2014-02-10 21:22:00,15.0,7.0,0.90,North,355,0.0,0.0,71,0.00,,,0.00,,2014-02-11 02:22:00,
2014-02-10 21:32:00,15.0,7.0,0.90,North,355,0.0,0.0,71,0.00,,,0.00,,2014-02-11 02:32:00,
2014-02-10 21:42:00,15.0,7.0,0.90,North,355,0.0,0.0,71,0.00,,,0.00,,2014-02-11 02:42:00,
2014-02-10 21:53:00,13.0,6.0,0.90,North,355,0.0,0.0,74,0.00,,,0.00,,2014-02-11 02:53:00,
2014-02-10 22:12:00,12.0,6.0,0.90,North,355,0.0,0.0,76,0.00,,,0.00,,2014-02-11 03:12:00,
2014-02-10 22:22:00,12.0,6.0,0.90,North,355,0.0,1.0,76,0.00,,,0.00,,2014-02-11 03:22:00,
2014-02-10 22:32:00,12.0,6.0,0.90,North,355,0.0,1.0,78,0.00,,,0.00,,2014-02-11 03:32:00,
2014-02-10 22:43:00,11.0,6.0,0.90,North,355,0.0,0.0,78,0.00,,,0.00,,2014-02-11 03:43:00,
2014-02-10 22:53:00,12.0,6.0,0.90,North,355,0.0,1.0,78,0.00,,,0.00,,2014-02-11 03:53:00,
2014-02-10 23:04:00,12.0,6.0,0.90,North,355,0.0,1.0,78,0.00,,,0.00,,2014-02-11 04:04:00,
2014-02-10 23:13:00,12.0,6.0,0.90,North,355,0.0,1.0,78,0.00,,,0.00,,2014-02-11 04:13:00,
2014-02-10 23:24:00,12.0,6.0,0.90,North,355,0.0,1.0,78,0.00,,,0.00,,2014-02-11 04:24:00,
2014-02-10 23:53:00,11.0,6.0,0.90,North,355,0.0,0.0,78,0.00,,,0.00,,2014-02-11 04:53:00,